TimeEST,TemperatureF,Dew PointF,Humidity,Sea Level PressureIn,VisibilityMPH,Wind Direction,Wind SpeedMPH,Gust SpeedMPH,PrecipitationIn,Events,Conditions,WindDirDegrees,DateUTC
12:53 AM,23.0,17.1,78,30.26,10.0,ESE,16.1,-,N/A,,Overcast,120,2013-02-22 05:53:00
1:53 AM,23.0,17.1,78,30.24,10.0,ESE,12.7,-,N/A,,Overcast,120,2013-02-22 06:53:00
2:04 AM,23.0,17.6,80,30.19,10.0,ESE,15.0,20.7,N/A,,Overcast,120,2013-02-22 07:04:00
3:04 AM,23.0,17.6,80,30.12,10.0,ESE,18.4,27.6,N/A,,Overcast,110,2013-02-22 08:04:00
3:53 AM,23.0,18.0,81,30.14,10.0,ESE,17.3,23.0,N/A,,Overcast,120,2013-02-22 08:53:00
4:53 AM,23.0,19.0,85,30.08,2.0,East,16.1,-,0.00,Snow,Light Snow,100,2013-02-22 09:53:00
5:05 AM,23.0,19.4,86,30.04,2.0,ESE,13.8,-,0.00,Snow,Light Snow,110,2013-02-22 10:05:00
5:24 AM,23.0,19.4,86,30.04,1.5,ESE,13.8,-,0.00,Snow,Light Snow,110,2013-02-22 10:24:00
5:35 AM,21.2,19.4,93,30.04,1.0,ESE,11.5,-,0.00,Snow,Light Snow,110,2013-02-22 10:35:00
5:48 AM,21.2,19.4,93,30.04,0.8,ESE,13.8,-,0.00,Snow,Light Snow,110,2013-02-22 10:48:00
5:53 AM,21.9,19.9,92,30.07,0.8,East,16.1,20.7,0.00,Snow,Light Snow,100,2013-02-22 10:53:00
6:15 AM,21.2,19.4,93,30.00,0.8,East,16.1,-,0.00,Snow,Light Snow,100,2013-02-22 11:15:00
6:50 AM,21.2,19.4,93,29.97,0.5,East,19.6,-,0.00,Fog-Snow,Snow,90,2013-02-22 11:50:00
6:53 AM,21.9,19.0,89,30.02,0.5,East,17.3,25.3,0.00,Fog-Snow,Snow,90,2013-02-22 11:53:00
7:03 AM,21.2,19.4,93,29.98,1.0,East,16.1,-,0.00,Snow,Light Snow,100,2013-02-22 12:03:00
7:36 AM,21.2,19.4,93,29.97,0.8,East,15.0,-,0.00,Snow,Light Snow,100,2013-02-22 12:36:00
7:53 AM,21.9,19.9,92,30.02,0.5,East,12.7,20.7,0.00,Fog-Snow,Snow,100,2013-02-22 12:53:00
8:09 AM,21.2,19.4,93,29.97,0.5,East,11.5,-,0.00,Fog-Snow,Snow,100,2013-02-22 13:09:00
8:42 AM,23.0,19.4,86,29.97,0.5,ESE,10.4,-,0.00,Fog-Snow,Light Snow,110,2013-02-22 13:42:00
8:53 AM,23.0,19.9,88,30.01,0.8,ESE,10.4,-,0.00,Snow,Light Snow,110,2013-02-22 13:53:00
9:01 AM,23.0,19.4,86,29.97,1.0,ESE,10.4,-,0.00,Snow,Light Snow,110,2013-02-22 14:01:00
9:25 AM,23.0,19.4,86,29.96,2.0,ESE,10.4,-,0.00,Snow,Light Snow,110,2013-02-22 14:25:00
9:36 AM,24.8,21.2,86,29.96,4.0,ESE,11.5,-,0.00,,Overcast,110,2013-02-22 14:36:00
9:48 AM,24.8,21.2,86,29.96,4.0,East,11.5,16.1,0.00,,Overcast,100,2013-02-22 14:48:00
9:53 AM,24.1,21.0,88,30.00,4.0,East,13.8,-,0.00,,Overcast,90,2013-02-22 14:53:00
10:00 AM,24.8,21.2,86,29.95,4.0,East,15.0,-,N/A,,Overcast,90,2013-02-22 15:00:00
10:21 AM,24.8,21.2,86,29.94,5.0,ESE,12.7,-,N/A,,Overcast,110,2013-02-22 15:21:00
11:53 AM,28.0,25.0,88,29.95,4.0,SE,10.4,-,N/A,,Overcast,130,2013-02-22 16:53:00
12:28 PM,28.4,26.6,93,29.91,6.0,SE,6.9,-,N/A,,Overcast,130,2013-02-22 17:28:00
12:53 PM,28.9,26.1,89,29.94,4.0,SE,6.9,-,0.02,,Overcast,130,2013-02-22 17:53:00
1:17 PM,28.4,26.6,93,29.89,2.5,SE,5.8,-,0.01,,Overcast,130,2013-02-22 18:17:00
1:53 PM,28.9,28.0,96,29.92,2.0,SSE,4.6,-,0.02,,Overcast,150,2013-02-22 18:53:00
2:12 PM,30.2,28.4,93,29.88,1.5,SSE,6.9,-,0.01,,Overcast,160,2013-02-22 19:12:00
2:19 PM,30.2,28.4,93,29.88,1.5,South,5.8,-,0.02,,Overcast,170,2013-02-22 19:19:00
2:53 PM,30.0,28.9,96,29.91,1.0,South,3.5,-,0.05,,Overcast,170,2013-02-22 19:53:00
3:21 PM,30.2,28.4,93,29.88,0.8,South,4.6,-,0.02,,Overcast,170,2013-02-22 20:21:00
3:53 PM,30.9,30.0,96,29.92,0.5,South,4.6,-,0.04,Fog,Light Freezing Fog,180,2013-02-22 20:53:00
4:53 PM,32.0,30.9,96,29.92,0.2,SSW,5.8,-,0.02,Fog,Fog,200,2013-02-22 21:53:00
5:53 PM,33.1,32.0,96,29.92,0.2,SW,8.1,-,0.01,Fog,Fog,220,2013-02-22 22:53:00
6:31 PM,33.8,32.0,93,29.89,1.8,SW,12.7,-,0.01,,Overcast,230,2013-02-22 23:31:00
6:38 PM,33.8,32.0,93,29.89,2.5,SW,11.5,-,0.02,,Overcast,230,2013-02-22 23:38:00
6:45 PM,33.8,32.0,93,29.90,3.0,WSW,12.7,-,0.02,,Overcast,240,2013-02-22 23:45:00
6:53 PM,33.1,32.0,96,29.94,4.0,SW,11.5,-,0.02,,Overcast,230,2013-02-22 23:53:00
7:00 PM,33.8,32.0,93,29.90,5.0,SW,12.7,-,N/A,,Overcast,230,2013-02-23 00:00:00
7:53 PM,34.0,32.0,92,29.94,7.0,SW,11.5,-,0.00,,Overcast,230,2013-02-23 00:53:00
8:05 PM,33.8,30.2,87,29.91,6.0,SW,11.5,-,N/A,,Overcast,230,2013-02-23 01:05:00
8:53 PM,34.0,30.9,89,29.95,7.0,SW,12.7,-,N/A,,Overcast,230,2013-02-23 01:53:00
9:14 PM,33.8,30.2,87,29.91,10.0,WSW,11.5,19.6,N/A,,Overcast,240,2013-02-23 02:14:00
9:22 PM,33.8,30.2,87,29.91,10.0,WSW,8.1,-,N/A,,Overcast,240,2013-02-23 02:22:00
9:53 PM,33.1,30.9,92,29.95,8.0,SW,11.5,-,N/A,,Overcast,230,2013-02-23 02:53:00
10:53 PM,33.1,30.0,89,29.95,7.0,SW,11.5,-,N/A,,Overcast,230,2013-02-23 03:53:00
11:53 PM,33.1,28.9,85,29.94,9.0,WSW,8.1,-,N/A,,Overcast,250,2013-02-23 04:53:00